FREGAT DEB

基本信息
目录编号:
52958
目录名称:
FREGAT DEB
国际标识:
2011-037PM
轨道中心:
EARTH
物体状态:
已陨落(2024-06-06)
发射日期:
2011-07-18 UTC
轨道信息
数据来源: 国际轨道数据
星历时间: 2024-06-05T14:08:12+0800
半长轴: 7019.068km
偏心率: 0.0448182
轨道倾角: 51.364°
近地点辐角: 102.661°
升交点赤经: 351.655°
平近点角: 262.483°
近地点: 326.351km
远地点: 955.515km
周期: 97.539分钟
每日圈数: 14.763306
详细信息
发射场:
TTMTR
轨道高度:
LEO
数据来源:
AOE Integration Group
参考系:
TEME
时间系统:
UTC
历元类型:
SGP4
2D轨道图
3D轨道图
轨道高度分析图
轨道倾角分析图
轨道综合分析图
查看轨道综合分析图